Weather History for Blue Canyon, CA

Change the Weather History Date:

Thursday, August 22, 2013

  Actual Average Record
Temperature  
Mean Temperature 68 °F -  
Max Temperature 75 °F 74 °F 87 °F (1969)
Min Temperature 62 °F 55 °F 40 °F (1978)
Cooling Degree Days 4    
Growing Degree Days 18 (Base 50)    
Moisture  
Dew Point 40 °F    
Average Humidity 37    
Maximum Humidity 52    
Minimum Humidity 22    
Precipitation  
Precipitation 0.00 in - - ()
Sea Level Pressure  
Sea Level Pressure 30.15 in    
Wind  
Wind Speed 3 mph (South)    
Max Wind Speed 15 mph    
Max Gust Speed 21 mph    
Visibility 8 miles    
Events      
Averages and records for this station are not official NWS values.
T = Trace of Precipitation, MM = Missing Value Source: NWS Daily Summary

Daily Weather History Graph

Daily Weather History Graph

Search for Another Location

Airport:

Trip Planner

Search our weather history database for the weather conditions in past years. The results will help you decide how hot, cold, wet, or windy it might be!

Date:

Astronomy

Aug. 22, 2013 Rise Set
Actual Time 6:22 AM PDT 7:48 PM PDT
Civil Twilight 5:54 AM PDT 8:16 PM PDT
Nautical Twilight 5:20 AM PDT 8:49 PM PDT
Astronomical Twilight 4:45 AM PDT 9:25 PM PDT
Moon 8:36 PM PDT (8/22) 8:15 AM PDT (8/22)
Length of Visible Light 14h 21m
Length of Day
13h 25m
Waning Gibbous, 96% of the Moon is Illuminated
Aug 22
Waning Gibbous
Aug 28
Last Quarter
Sep 5
New
Sep 12
First Quarter
Sep 19
Full

Hourly Weather History & Observations

Time (PDT) Temp. Dew Point Humidity Pressure Visibility Wind Dir Wind Speed Gust Speed Precip Events Conditions
12:52 AM 69.1 °F 46.9 °F 45% 29.82 in 10.0 mi Calm Calm - N/A   Mostly Cloudy
12:55 AM 69.8 °F 46.4 °F 43% 30.41 in 10.0 mi Calm Calm - N/A   Mostly Cloudy
1:02 AM 68.0 °F 46.4 °F 46% 30.14 in 10.0 mi Calm Calm - N/A   Mostly Cloudy
1:09 AM 68.0 °F 46.4 °F 46% 30.14 in 10.0 mi Calm Calm - N/A   Mostly Cloudy
1:17 AM 68.0 °F 46.4 °F 46% 30.14 in 10.0 mi Calm Calm - N/A   Mostly Cloudy
1:25 AM 66.2 °F 46.4 °F 49% 30.14 in 10.0 mi ENE 3.5 mph - N/A   Mostly Cloudy
1:52 AM 66.9 °F 45.0 °F 45% 29.82 in 10.0 mi Variable 3.5 mph - N/A   Overcast
1:55 AM 66.2 °F 44.6 °F 46% 30.41 in 10.0 mi NE 4.6 mph - N/A   Mostly Cloudy
2:52 AM 68.0 °F 44.1 °F 42% 29.82 in 10.0 mi Calm Calm - N/A   Mostly Cloudy
2:55 AM 68.0 °F 44.6 °F 43% 30.41 in 10.0 mi Calm Calm - N/A   Mostly Cloudy
3:52 AM 68.0 °F 44.1 °F 42% 29.83 in 10.0 mi Calm Calm - N/A   Mostly Cloudy
3:55 AM 68.0 °F 44.6 °F 43% 30.41 in 10.0 mi Calm Calm - N/A   Mostly Cloudy
4:52 AM 68.0 °F 44.1 °F 42% 29.82 in 10.0 mi Calm Calm - N/A   Mostly Cloudy
4:55 AM 68.0 °F 44.6 °F 43% 30.41 in 10.0 mi Calm Calm - N/A   Mostly Cloudy
5:52 AM 66.9 °F 45.0 °F 45% 29.82 in 10.0 mi South 3.5 mph - N/A   Mostly Cloudy
5:55 AM 66.2 °F 44.6 °F 46% 30.41 in 10.0 mi South 3.5 mph - N/A   Mostly Cloudy
6:52 AM 64.9 °F 46.0 °F 50% 29.85 in 4.0 mi SE 3.5 mph - N/A   Haze
6:55 AM 64.4 °F 46.4 °F 52% 30.41 in 4.0 mi SE 4.6 mph - N/A   Overcast
7:47 AM 64.4 °F 46.4 °F 52% 30.42 in 2.5 mi Calm Calm - N/A   Overcast
7:48 AM 64.4 °F 46.4 °F 52% 30.14 in 2.5 mi Calm Calm - N/A   Haze
7:52 AM 64.9 °F 46.0 °F 50% 29.87 in 2.0 mi Calm Calm - N/A   Haze
7:54 AM 64.4 °F 46.4 °F 52% 30.42 in 1.8 mi Calm Calm - N/A   Overcast
7:55 AM 64.4 °F 46.4 °F 52% 30.42 in 1.8 mi Calm Calm - N/A   Overcast
7:59 AM 64.4 °F 44.6 °F 49% 30.14 in 1.5 mi Calm Calm - N/A   Haze
8:09 AM 66.2 °F 44.6 °F 46% 30.14 in 1.2 mi Calm Calm - N/A   Haze
8:30 AM 66.2 °F 42.8 °F 43% 30.14 in 1.2 mi SSE 5.8 mph - N/A   Haze
8:52 AM 68.0 °F 41.0 °F 37% 29.88 in 1.5 mi SSE 3.5 mph - N/A   Haze
8:55 AM 68.0 °F 41.0 °F 37% 30.42 in 1.5 mi Variable 4.6 mph - N/A   Mostly Cloudy
9:10 AM 69.8 °F 39.2 °F 33% 30.42 in 2.0 mi SSE 5.8 mph - N/A   Mostly Cloudy
9:22 AM 69.8 °F 37.4 °F 31% 30.15 in 2.5 mi South 6.9 mph - N/A   Haze
9:26 AM 69.8 °F 37.4 °F 31% 30.42 in 3.0 mi South 5.8 mph - N/A   Partly Cloudy
9:31 AM 69.8 °F 39.2 °F 33% 30.15 in 3.0 mi South 5.8 mph - N/A   Haze
9:52 AM 69.1 °F 37.9 °F 32% 29.87 in 4.0 mi South 6.9 mph - N/A   Haze
9:55 AM 69.8 °F 39.2 °F 33% 30.42 in 4.0 mi South 9.2 mph - N/A   Clear
10:52 AM 72.0 °F 39.9 °F 31% 29.88 in 9.0 mi SSE 9.2 mph 17.3 mph N/A   Clear
10:55 AM 71.6 °F 39.2 °F 31% 30.42 in 9.0 mi South 9.2 mph - N/A   Clear
11:52 AM 72.0 °F 37.9 °F 29% 29.88 in 10.0 mi SSW 9.2 mph - N/A   Clear
11:55 AM 71.6 °F 37.4 °F 29% 30.42 in 9.0 mi South 11.5 mph - N/A   Clear
12:52 PM 73.0 °F 37.0 °F 27% 29.86 in 10.0 mi South 12.7 mph 20.7 mph N/A   Clear
12:55 PM 71.6 °F 37.4 °F 29% 30.41 in 10.0 mi South 9.2 mph - N/A   Clear
1:52 PM 75.0 °F 37.0 °F 25% 29.85 in 10.0 mi South 11.5 mph 20.7 mph N/A   Clear
1:55 PM 73.4 °F 35.6 °F 25% 30.41 in 10.0 mi South 12.7 mph - N/A   Clear
2:52 PM 75.0 °F 34.0 °F 22% 29.83 in 10.0 mi South 5.8 mph 20.7 mph N/A   Clear
2:55 PM 75.2 °F 35.6 °F 24% 30.41 in 10.0 mi South 15.0 mph 20.7 mph N/A   Clear
3:52 PM 75.0 °F 34.0 °F 22% 29.81 in 10.0 mi Variable 6.9 mph 20.7 mph N/A   Clear
3:55 PM 75.2 °F 33.8 °F 22% 30.41 in 10.0 mi SSW 9.2 mph - N/A   Clear
4:52 PM 73.9 °F 35.1 °F 24% 29.81 in 10.0 mi South 11.5 mph 18.4 mph N/A   Clear
4:55 PM 73.4 °F 35.6 °F 25% 30.41 in 10.0 mi South 12.7 mph - N/A   Clear
5:52 PM 71.1 °F 34.0 °F 26% 29.82 in 10.0 mi SW 9.2 mph 18.4 mph N/A   Clear
5:55 PM 71.6 °F 33.8 °F 25% 30.41 in 10.0 mi SSW 8.1 mph - N/A   Clear
6:52 PM 69.1 °F 32.0 °F 25% 29.83 in 10.0 mi SW 5.8 mph - N/A   Clear
6:55 PM 69.8 °F 33.8 °F 27% 30.41 in 10.0 mi SSW 5.8 mph - N/A   Clear
7:52 PM 66.0 °F 36.0 °F 33% 29.85 in 10.0 mi Calm Calm - N/A   Clear
7:55 PM 66.2 °F 37.4 °F 35% 30.41 in 10.0 mi Calm Calm - N/A   Clear
8:52 PM 64.0 °F 37.9 °F 38% 29.86 in 10.0 mi SSW 3.5 mph - N/A   Clear
8:55 PM 64.4 °F 37.4 °F 37% 30.41 in 10.0 mi SSW 3.5 mph - N/A   Clear
9:52 PM 62.1 °F 37.9 °F 41% 29.87 in 10.0 mi Calm Calm - N/A   Clear
9:55 PM 62.6 °F 37.4 °F 39% 30.42 in 10.0 mi Calm Calm - N/A   Clear
10:52 PM 62.1 °F 37.0 °F 39% 29.86 in 10.0 mi NE 3.5 mph - N/A   Clear
10:55 PM 62.6 °F 35.6 °F 37% 30.41 in 10.0 mi NE 3.5 mph - N/A   Clear
11:52 PM 62.1 °F 35.1 °F 37% 29.86 in 10.0 mi East 3.5 mph - N/A   Clear
11:55 PM 62.6 °F 35.6 °F 37% 30.41 in 10.0 mi East 3.5 mph - N/A   Clear